Home > Weather > Mandurah > Past weeks

Flag for Australia Past Weather in Mandurah, Western Australia, Australia — Yesterday and Last 2 Weeks

Now
64 °F

Mild.


Feels Like: 64 °F
Forecast: 56 / 61 °F
Wind: 16 mph from North

Location: Mandurah Aws

Current Time: Aug 26, 2016 at 4:49:00 PM

Latest Report: Aug 26, 2016 at 3:00 PM


Visibility: N/A

Pressure: 29.74 "Hg

Humidity: 60%

Dew Point: 50 °F

Location of MandurahLocation

Past Weather in Mandurah — Graph

°F

Mandurah Temperature Yesterday

Maximum temperature yesterday: 65 °F (at 2:00 PM)
Minimum temperature yesterday: 47 °F (at 6:00 AM)
Average temperature yesterday: 56 °F

High & Low Weather Summary for the Past Weeks

 TemperatureHumidityPressure
High65 °F (Aug 25, 2:00 PM)100% (Aug 17, 8:00 AM)30.34 "Hg (Aug 17, 8:00 AM)
Low42 °F (Aug 24, 6:00 AM)36% (Aug 24, 2:00 PM)29.56 "Hg (Aug 17, 12:00 PM)
Average56 °F71%30.10 "Hg
* Reported Aug 11 3:00 PM — Aug 26 3:00 PM, Mandurah, Weather by CustomWeather, © 2016

Note: Actual official high and low records may vary slightly from our data, if they occured in-between our weather recording intervals... More about our weather records

Advertising

Mandurah Weather History for the Previous 24 Hours

Scroll right to see more
 ConditionsComfort  
Time TempWeatherWind HumidityBarometerVisibility
3:00 PM
Fri, Aug 26
64 °FMild.16 mph60%29.74 "HgN/A
2:00 PM64 °FMild.17 mph61%29.75 "HgN/A
12:00 PM63 °FMild.18 mph58%29.81 "HgN/A
11:00 AM63 °FMild.18 mph57%29.85 "HgN/A
9:00 AM61 °FRefreshingly cool.15 mph56%29.89 "HgN/A
8:00 AM60 °FRefreshingly cool.18 mph54%29.89 "HgN/A
6:00 AM60 °FRefreshingly cool.13 mph57%29.89 "HgN/A
5:00 AM59 °FRefreshingly cool.14 mph56%29.89 "HgN/A
3:00 AM59 °FRefreshingly cool.13 mph52%29.94 "HgN/A
2:00 AM59 °FRefreshingly cool.15 mph54%29.96 "HgN/A
12:00 AM57 °FRefreshingly cool.7 mph55%30.02 "HgN/A
11:00 PM
Thu, Aug 25
57 °FRefreshingly cool.8 mph55%30.04 "HgN/A
9:00 PM57 °FRefreshingly cool.3 mph58%30.08 "HgN/A
8:00 PM58 °FRefreshingly cool.5 mph55%30.09 "HgN/A
6:00 PM61 °FRefreshingly cool.6 mph52%30.08 "HgN/A
5:00 PM63 °FMild.13 mph52%30.07 "HgN/A
Weather by CustomWeather, © 2016

See weather overviewHow to use our weather pages